Theta_e
298 299 299 298 297 299 300 301 301 302 303 303 303 304 306 307 309 309 312 309 308 308 308 311 314 316 317 318 317 318 321 322 323 322 323 321 323 321 321 325 321 322 325 331 339
297 298 298 297 297 297 299 300 301 302 302 303 303 305 307 308 311 311 309 309 310 309 310 313 317 315 318 319 318 320 322 323 323 323 323 321 321 320 322 322 320 320 320 331 336
297 298 296 295 295 297 298 299 300 301 302 302 302 304 307 309 316 311 308 308 309 308 310 311 316 317 319 319 319 320 322 322 320 319 319 320 320 318 321 320 318 318 319 321 333
296 297 295 295 296 298 299 299 300 300 301 302 302 302 306 310 316 310 306 306 307 307 310 313 316 317 319 320 320 322 321 321 318 316 317 318 319 318 317 317 317 317 318 318 319
296 295 295 295 298 300 300 300 300 301 301 301 303 302 306 312 312 309 306 307 307 309 311 312 315 318 319 320 319 321 319 316 315 315 314 315 317 319 315 315 316 316 317 317 318
296 295 295 295 299 301 301 301 302 302 301 304 307 305 308 312 309 309 308 308 308 311 311 311 313 315 318 318 319 319 317 314 313 314 313 316 317 317 315 315 316 317 317 317 317
295 295 295 295 299 302 302 303 304 303 303 308 309 308 312 311 309 309 308 307 307 310 311 311 312 313 315 314 314 314 314 314 313 314 313 315 317 316 315 316 317 317 317 317 318
295 295 295 296 299 302 304 305 305 306 306 307 307 310 312 308 309 309 309 308 308 309 310 310 311 312 314 312 313 314 315 315 314 313 313 314 317 316 317 318 318 318 319 320 320
295 295 296 296 301 302 304 306 306 306 306 306 308 312 310 307 309 309 309 309 309 309 309 309 311 312 312 315 314 315 316 317 314 315 316 317 317 318 318 319 319 320 320 319 319
295 295 296 296 302 303 304 306 306 306 306 306 309 311 308 309 308 309 308 309 309 309 310 311 313 314 314 315 315 315 316 316 316 316 318 319 319 319 318 319 319 319 319 318 318
295 295 296 297 302 303 306 307 308 309 308 310 310 311 309 308 309 309 309 309 309 310 313 313 315 316 315 315 316 317 316 315 314 317 320 320 320 319 318 319 319 318 318 318 317
296 295 295 297 302 304 305 311 310 311 310 309 309 309 309 309 309 309 309 310 311 313 313 315 316 313 313 313 314 315 316 315 314 314 320 320 320 319 318 318 318 318 317 317 317
296 295 295 297 301 304 310 310 306 307 312 309 309 309 309 309 310 310 310 310 312 313 314 315 313 311 313 314 315 316 316 316 315 315 319 320 320 319 318 317 318 318 317 317 317
296 295 295 298 304 306 310 305 306 305 315 311 309 309 308 310 310 310 310 311 313 313 314 312 310 311 313 313 314 314 313 314 314 316 318 316 322 318 318 318 318 318 318 317 317
296 295 295 298 307 308 309 304 305 307 325 311 310 308 308 310 310 310 310 310 313 313 312 312 310 312 313 312 313 313 313 315 316 317 317 316 318 319 318 318 318 317 317 317 317
296 296 295 306 306 307 304 305 307 317 321 310 309 309 309 309 310 310 310 311 311 312 314 312 311 312 312 311 313 312 314 315 316 317 319 316 317 320 319 318 317 316 316 315 314
298 295 294 297 309 305 304 311 316 321 311 310 309 310 311 311 311 311 311 312 313 312 312 311 311 310 311 312 312 314 316 316 317 317 319 316 318 321 317 317 316 315 314 313 312
299 296 295 297 306 305 311 314 318 312 311 310 310 310 311 311 311 311 311 312 313 313 313 312 311 310 310 313 314 316 316 319 316 315 317 315 319 319 316 315 314 313 313 312 311
299 300 302 305 299 306 311 318 319 312 312 310 310 310 311 311 311 311 312 312 311 313 313 313 312 309 310 311 313 313 316 317 319 317 316 318 317 316 314 314 314 313 312 311 311
300 300 302 306 298 309 314 316 312 311 311 311 311 311 312 311 311 312 312 312 310 310 312 312 309 309 309 311 312 316 316 315 317 316 317 317 319 320 315 315 314 313 312 311 311
299 301 307 304 299 310 315 315 311 309 309 311 312 311 312 311 311 313 313 310 309 309 310 312 312 309 309 313 313 313 314 316 317 319 317 315 319 319 316 314 314 312 311 311 310
300 303 305 303 306 310 313 312 310 310 309 311 311 311 312 312 311 313 313 311 308 307 310 311 313 308 311 310 311 314 314 315 317 317 315 317 318 315 315 313 311 311 311 310 309
300 301 304 304 309 308 310 311 309 310 310 310 311 311 312 312 311 312 312 308 307 308 310 309 312 312 310 309 310 311 312 314 313 314 315 316 318 315 312 310 309 309 309 309 309
300 303 303 303 306 309 309 310 310 308 309 309 310 310 311 312 311 312 310 307 306 307 304 305 312 314 315 316 313 312 311 311 311 313 313 313 315 314 312 311 309 308 309 309 309
299 301 302 306 304 308 309 308 309 309 308 308 310 310 311 311 311 311 309 307 306 303 305 310 311 310 308 310 311 312 312 310 310 311 312 311 311 309 309 309 309 309 309 309 308
299 301 300 305 304 306 308 310 309 310 309 309 310 310 312 312 311 312 309 308 308 306 309 309 311 309 308 307 306 306 308 311 310 310 309 309 309 309 307 308 309 309 309 308 307
297 300 301 304 306 308 309 308 309 310 309 309 309 311 311 311 310 311 309 309 309 309 309 309 309 309 310 307 307 309 308 308 309 310 309 309 309 309 309 309 309 309 308 307 306
Wind_Speed
11 10 10 8 7 7 9 9 10 12 11 10 10 7 5 2 2 0 5 6 6 5 2 5 6 6 8 9 8 7 9 10 5 3 10 6 5 10 1 17 19 19 16 7 5
12 10 9 9 8 8 8 9 10 10 10 10 10 8 10 7 5 3 9 7 6 3 3 3 5 7 11 7 5 8 10 9 12 9 6 5 7 9 4 13 16 17 17 13 6
12 10 9 9 10 10 9 10 9 9 10 11 11 12 11 2 5 4 9 5 5 4 6 6 6 8 13 8 6 3 6 10 11 5 4 4 11 14 11 13 15 15 16 16 9
12 11 9 10 11 11 11 10 8 8 8 9 9 11 13 6 2 4 7 4 4 3 5 5 9 11 11 10 7 8 4 2 6 6 6 5 5 13 16 11 11 10 11 13 13
13 12 10 10 12 13 9 6 6 5 6 6 6 9 13 8 6 7 6 5 3 2 4 7 9 10 10 6 7 4 10 9 7 4 11 3 5 12 15 13 10 9 9 11 12
13 13 11 11 12 13 7 4 4 4 5 7 9 13 10 14 2 7 6 3 1 1 2 7 6 8 5 5 4 7 10 9 7 6 8 4 11 5 15 11 8 9 10 11 12
13 14 11 11 11 12 7 3 2 4 7 11 11 9 8 2 2 3 4 1 1 4 3 4 6 7 11 7 10 12 14 8 11 5 4 2 12 12 12 11 11 11 14 14 16
13 13 13 11 11 9 5 2 3 6 9 11 13 6 1 3 1 4 0 2 2 4 6 4 6 8 5 10 9 11 11 11 9 3 3 7 14 13 13 12 16 16 16 17 20
14 12 13 11 10 7 2 3 7 7 11 10 6 3 3 2 0 3 2 3 4 5 6 4 7 6 9 12 10 11 10 9 8 7 4 6 12 12 14 17 19 19 20 21 21
14 11 13 11 8 4 2 4 9 8 5 4 4 5 5 6 1 2 1 5 4 7 6 7 9 9 11 12 12 12 10 6 9 5 16 19 17 14 16 18 19 19 21 24 26
17 13 10 11 7 1 10 4 5 4 9 5 3 0 8 5 2 2 4 5 5 7 7 10 10 8 6 2 4 11 14 13 12 7 15 16 16 15 16 19 20 20 20 21 24
16 15 10 9 6 5 7 4 3 2 4 4 6 5 4 5 5 3 4 9 9 6 8 8 9 6 5 6 9 12 17 14 10 12 13 16 16 14 16 16 18 18 19 19 20
16 16 12 6 4 4 2 3 4 5 6 6 6 9 7 4 1 3 3 7 8 11 13 4 11 7 9 10 11 9 9 12 16 12 14 17 13 12 13 13 13 15 15 17 19
15 14 12 6 1 3 4 4 9 1 5 12 11 7 8 7 4 2 1 1 5 10 14 8 8 8 10 9 5 10 6 8 13 17 8 12 7 6 8 9 12 12 14 15 16
13 13 9 6 2 2 6 8 7 3 4 17 14 8 9 7 11 4 2 4 7 10 6 6 9 9 10 5 6 9 7 7 10 11 10 9 8 10 3 7 8 10 13 14 15
16 11 8 6 6 7 4 11 4 2 7 9 9 12 14 10 5 5 5 4 7 8 6 10 6 2 6 6 3 11 10 8 5 6 7 3 9 8 7 4 5 7 10 13 15
24 11 10 8 3 8 11 7 4 5 8 10 10 17 16 10 9 10 13 11 8 12 11 13 7 7 6 10 8 9 13 6 8 6 1 5 6 10 8 4 5 6 10 11 13
27 16 11 12 8 8 6 8 6 10 14 6 12 16 16 14 9 12 15 11 8 6 14 10 7 9 4 4 4 10 11 5 8 6 9 5 6 7 8 6 5 5 7 9 11
26 13 13 10 12 13 15 6 9 9 13 13 16 18 14 16 7 12 14 13 8 12 7 8 6 5 2 3 6 7 6 6 1 5 3 9 9 7 9 9 5 3 4 6 9
17 16 16 16 14 12 11 9 11 7 8 18 16 19 19 19 13 14 14 7 9 6 4 4 6 6 6 5 4 7 6 4 3 5 6 8 12 6 15 11 7 5 1 4 7
12 8 9 17 15 17 9 9 14 9 12 19 14 15 16 20 16 17 15 8 8 9 7 8 3 8 6 8 9 5 7 5 2 3 3 5 5 12 13 7 4 2 1 4 7
8 6 7 16 15 16 10 13 14 12 17 11 9 11 14 18 15 14 13 4 13 13 9 3 4 7 10 3 8 6 4 7 5 9 3 5 6 8 10 8 3 2 3 5 6
7 18 9 17 8 8 11 20 14 15 17 14 11 9 12 14 10 10 11 8 13 10 11 10 7 7 6 4 7 9 8 6 1 3 9 4 6 10 9 7 4 5 6 5 5
7 3 14 20 18 18 17 18 22 20 17 15 10 10 13 16 5 14 12 11 13 9 3 3 8 5 4 6 10 10 14 11 8 4 4 10 12 11 9 10 3 4 4 5 6
13 9 12 6 12 18 19 13 22 15 20 20 13 15 16 12 12 15 16 15 11 10 9 4 7 6 5 6 3 8 13 14 14 10 7 2 8 1 3 2 4 3 4 6 8
10 10 18 25 21 24 22 24 24 24 18 24 16 22 22 14 10 22 17 16 11 15 11 7 5 7 4 4 4 7 10 13 16 15 14 13 12 8 8 4 7 5 5 7 8
31 23 14 13 22 17 24 25 27 24 22 22 26 19 20 9 8 22 24 16 12 15 13 10 8 8 4 5 2 7 20 20 17 17 15 16 11 8 6 8 7 6 6 8 8
Wind_Direction
328 317 305 303 297 280 269 268 267 267 262 256 252 233 216 178 81 138 253 262 256 280 289 326 264 238 227 232 242 249 254 244 151 318 102 66 357 25 322 85 42 43 33 36 74
330 322 313 311 300 296 282 276 272 266 262 250 242 209 158 144 106 234 266 271 261 273 8 295 219 203 214 218 227 239 245 35 51 45 58 58 33 3 18 40 31 28 29 36 70
332 322 321 320 310 306 302 290 274 265 256 247 234 210 196 214 285 215 286 275 247 239 290 263 249 228 221 204 190 193 319 114 71 46 347 7 64 36 4 48 21 16 20 28 42
333 325 327 319 312 316 316 303 283 262 248 243 230 215 199 202 250 281 296 286 218 216 265 238 227 212 218 200 183 139 53 27 74 59 24 39 68 67 45 24 3 12 16 22 27
335 328 326 321 314 320 325 304 285 257 232 224 210 185 171 222 242 315 310 322 337 292 225 222 223 222 210 168 182 164 121 106 81 114 27 342 65 97 31 3 0 9 18 19 19
335 327 323 321 315 321 327 303 277 236 198 171 164 166 187 239 275 319 320 331 272 215 187 209 220 223 148 172 230 134 138 102 56 105 49 11 84 9 12 9 20 25 29 30 27
335 327 319 319 315 322 323 293 240 186 165 156 159 169 227 182 350 337 347 356 165 153 160 171 173 195 155 139 140 148 141 112 42 91 88 140 94 39 17 25 34 34 39 44 38
332 329 317 317 314 321 308 235 172 149 150 152 146 139 231 208 176 359 55 35 138 131 143 111 154 140 203 126 158 180 189 187 61 115 200 240 77 40 37 44 53 51 51 51 43
330 331 317 315 314 315 269 189 153 134 142 149 143 231 168 152 295 4 77 148 131 136 141 134 166 169 163 182 169 197 195 178 102 39 159 175 101 55 53 59 58 58 57 52 45
328 329 320 314 316 310 166 155 151 134 143 156 229 226 188 173 233 10 90 154 148 137 142 187 194 188 197 204 199 179 135 151 114 93 100 100 98 74 65 69 65 64 63 58 52
321 320 323 311 312 213 137 104 155 186 200 293 156 39 134 135 80 43 149 157 174 214 203 205 192 175 97 20 46 145 142 118 122 97 109 104 98 87 72 69 71 67 61 57 53
318 317 319 311 304 187 176 259 321 174 201 222 209 161 151 159 150 85 172 212 215 171 179 179 116 111 130 139 141 146 134 122 118 173 134 118 102 92 84 76 65 64 60 51 47
314 314 314 314 309 182 219 247 197 173 239 186 182 176 166 184 165 78 199 183 185 175 189 155 135 156 156 147 141 127 146 172 136 153 134 130 106 112 99 85 78 71 58 52 44
311 310 312 314 53 285 231 233 179 150 239 165 198 186 181 171 146 114 164 172 191 147 111 98 135 160 161 136 131 128 102 129 154 164 182 226 127 111 103 92 73 62 54 48 42
302 305 306 293 241 274 241 202 178 311 273 143 159 147 171 202 128 126 151 222 172 150 252 121 150 167 160 105 292 124 165 168 173 215 165 180 244 120 169 95 62 43 44 37 39
301 297 293 342 284 269 220 160 145 246 244 170 164 184 178 188 185 128 163 143 163 177 163 123 95 26 113 141 44 137 155 158 201 161 230 162 267 147 146 90 55 41 46 38 39
310 284 271 256 183 250 161 152 203 201 146 176 186 176 188 176 170 186 169 176 150 148 156 155 139 126 189 145 167 203 176 155 190 198 129 134 229 80 121 99 72 52 52 50 44
312 287 262 247 240 191 194 192 212 226 204 142 171 185 192 171 176 185 187 179 246 244 155 165 168 179 166 298 152 189 209 294 220 197 142 156 187 154 124 125 116 86 68 52 44
315 305 273 252 216 187 206 205 204 227 190 174 168 179 185 185 192 185 197 201 175 233 201 186 116 121 165 189 271 153 214 43 124 39 257 150 91 134 162 160 155 94 63 44 28
310 294 256 229 201 190 219 233 226 235 174 186 184 192 189 189 194 196 186 193 184 243 329 119 131 179 141 207 212 288 116 174 217 191 213 184 170 139 178 173 164 167 32 20 9
301 271 203 222 182 205 214 227 236 225 209 193 213 196 202 182 200 198 188 154 175 172 219 167 179 160 166 217 168 173 188 241 319 305 258 192 135 108 152 160 180 188 276 341 342
256 243 235 188 197 216 222 218 241 217 204 198 276 203 212 176 195 188 181 200 176 163 175 136 115 163 184 75 333 313 221 203 248 174 220 325 93 118 135 152 183 273 254 307 326
232 245 255 190 219 215 230 228 240 220 196 194 211 202 204 175 182 175 156 127 163 178 161 182 163 138 160 178 213 220 202 213 232 311 202 209 122 150 145 166 202 254 279 285 322
217 219 220 212 232 214 217 225 216 232 212 201 197 183 184 187 187 169 152 169 167 168 111 182 192 263 193 83 143 188 188 198 198 201 226 223 128 172 192 229 287 273 255 286 318
216 208 216 204 225 229 222 216 217 207 219 197 195 196 181 174 174 168 160 149 179 156 187 226 184 186 104 103 125 179 194 198 212 211 214 246 241 192 159 254 271 263 261 283 303
221 197 226 245 211 215 221 223 219 201 195 200 212 199 194 187 185 174 162 173 171 180 183 197 149 162 189 177 214 232 233 222 222 225 235 244 250 256 246 204 214 228 263 292 305
232 231 214 248 244 205 219 219 223 216 205 216 210 187 194 201 196 165 167 167 161 169 178 173 151 170 149 162 177 269 234 226 227 222 234 237 244 178 189 204 227 246 273 297 310